BAW930 EGLL-EDDK

Flight info

Callsign BAW930
Flight time 0h 51m
Altitude 33000
Route DET L6 DVR UL9 KONAN DCT KOK UL607 SPI T857 DENOV T861 ERUKI T856 DEPOK DEPO2V
Aircraft A20N/M-SDE2E3FGHIRWXY/LB1

Departure

Time 2026-04-21 08:43
Airport London Heathrow Airport (EGLL)

Arrival

Time 2026-04-21 09:35
Airport Cologne Bonn Airport (EDDK)
Time Latitude Longitude Altitude Speed Heading
2026-04-21 08:16 51.46927 -0.48859 90 ft 0 kts 359°
2026-04-21 08:34 51.46919 -0.48859 90 ft 2 kts 359°
2026-04-21 08:34 51.46904 -0.48858 90 ft 2 kts 359°
2026-04-21 08:34 51.46889 -0.48858 90 ft 1 kts 342°
2026-04-21 08:35 51.46877 -0.48843 90 ft 2 kts 297°
2026-04-21 08:35 51.46875 -0.48820 90 ft 2 kts 262°
2026-04-21 08:35 51.46875 -0.48796 90 ft 2 kts 272°
2026-04-21 08:35 51.46875 -0.48772 90 ft 2 kts 269°
2026-04-21 08:36 51.46875 -0.48748 90 ft 2 kts 270°
2026-04-21 08:36 51.46876 -0.48724 90 ft 2 kts 270°
2026-04-21 08:36 51.46876 -0.48700 90 ft 2 kts 270°
2026-04-21 08:36 51.46876 -0.48676 90 ft 2 kts 270°
2026-04-21 08:37 51.46876 -0.48660 90 ft 0 kts 270°
2026-04-21 08:39 51.46876 -0.48667 90 ft 1 kts 270°
2026-04-21 08:39 51.46876 -0.48695 90 ft 4 kts 270°
2026-04-21 08:40 51.46868 -0.48746 90 ft 5 kts 208°
2026-04-21 08:40 51.46822 -0.48751 90 ft 7 kts 180°
2026-04-21 08:40 51.46764 -0.48750 90 ft 9 kts 180°
2026-04-21 08:40 51.46691 -0.48749 90 ft 11 kts 180°
2026-04-21 08:41 51.46608 -0.48762 90 ft 11 kts 198°
2026-04-21 08:41 51.46527 -0.48788 90 ft 12 kts 168°
2026-04-21 08:41 51.46477 -0.48697 90 ft 9 kts 94°
2026-04-21 08:41 51.46478 -0.48667 90 ft 0 kts 89°
2026-04-21 08:42 51.46478 -0.48666 90 ft 2 kts 89°
2026-04-21 08:42 51.46479 -0.48224 90 ft 77 kts 90°
2026-04-21 08:42 51.46482 -0.46997 91 ft 140 kts 90°
2026-04-21 08:43 51.46482 -0.45347 550 ft 153 kts 88°
2026-04-21 08:43 51.46480 -0.43631 1224 ft 158 kts 87°
2026-04-21 08:43 51.46463 -0.41915 2034 ft 156 kts 92°
2026-04-21 08:43 51.46054 -0.40242 2554 ft 175 kts 119°
2026-04-21 08:44 51.45276 -0.38673 3049 ft 190 kts 121°
2026-04-21 08:44 51.44669 -0.36712 3497 ft 204 kts 101°
2026-04-21 08:44 51.44279 -0.34448 4118 ft 219 kts 104°
2026-04-21 08:44 51.43766 -0.32125 4765 ft 233 kts 108°
2026-04-21 08:45 51.43152 -0.29643 5332 ft 250 kts 109°
2026-04-21 08:45 51.42531 -0.26976 6119 ft 257 kts 102°
2026-04-21 08:45 51.42153 -0.24266 7221 ft 252 kts 99°
2026-04-21 08:45 51.41797 -0.21597 8270 ft 248 kts 99°
2026-04-21 08:46 51.41444 -0.18903 9144 ft 252 kts 99°
2026-04-21 08:46 51.41092 -0.16119 9772 ft 264 kts 98°
2026-04-21 08:46 51.40733 -0.13169 10459 ft 275 kts 98°
2026-04-21 08:46 51.40356 -0.10169 11073 ft 287 kts 100°
2026-04-21 08:47 51.39897 -0.06950 11530 ft 305 kts 100°
2026-04-21 08:47 51.39411 -0.03590 12215 ft 313 kts 100°
2026-04-21 08:47 51.38925 -0.00196 13014 ft 317 kts 100°
2026-04-21 08:47 51.38438 0.03250 13794 ft 321 kts 100°
2026-04-21 08:48 51.37954 0.06697 14582 ft 324 kts 100°
2026-04-21 08:48 51.37455 0.10247 15343 ft 328 kts 100°
2026-04-21 08:48 51.36954 0.13810 16029 ft 333 kts 100°
2026-04-21 08:48 51.36445 0.17431 16704 ft 338 kts 99°
2026-04-21 08:49 51.35933 0.21074 17372 ft 343 kts 99°
2026-04-21 08:49 51.35405 0.24821 17953 ft 350 kts 99°
2026-04-21 08:49 51.34864 0.28632 18557 ft 356 kts 99°
2026-04-21 08:49 51.34318 0.32495 19226 ft 359 kts 99°
2026-04-21 08:50 51.33766 0.36369 19827 ft 364 kts 99°
2026-04-21 08:50 51.33201 0.40332 20388 ft 370 kts 99°
2026-04-21 08:50 51.32624 0.44362 20939 ft 375 kts 99°
2026-04-21 08:50 51.32039 0.48440 21489 ft 380 kts 99°
2026-04-21 08:51 51.31449 0.52538 22049 ft 385 kts 99°
2026-04-21 08:51 51.30840 0.56754 22535 ft 391 kts 99°
2026-04-21 08:51 51.30182 0.60990 23009 ft 398 kts 102°
2026-04-21 08:51 51.29424 0.65222 23523 ft 403 kts 103°
2026-04-21 08:52 51.28639 0.69515 24025 ft 407 kts 103°
2026-04-21 08:52 51.27841 0.73861 24496 ft 412 kts 103°
2026-04-21 08:52 51.27033 0.78250 24951 ft 417 kts 103°
2026-04-21 08:52 51.26214 0.82696 25411 ft 420 kts 103°
2026-04-21 08:53 51.25385 0.87193 25863 ft 424 kts 103°
2026-04-21 08:53 51.24547 0.91728 26254 ft 430 kts 103°
2026-04-21 08:53 51.23703 0.96285 26615 ft 435 kts 103°
2026-04-21 08:53 51.22836 1.00947 26978 ft 440 kts 103°
2026-04-21 08:54 51.21968 1.05611 27370 ft 444 kts 103°
2026-04-21 08:54 51.21092 1.10304 27763 ft 447 kts 103°
2026-04-21 08:54 51.20196 1.15092 28139 ft 451 kts 103°
2026-04-21 08:54 51.19302 1.19848 28513 ft 455 kts 103°
2026-04-21 08:55 51.18393 1.24681 28838 ft 459 kts 103°
2026-04-21 08:55 51.17487 1.29545 29240 ft 460 kts 102°
2026-04-21 08:55 51.16720 1.34452 29728 ft 458 kts 98°
2026-04-21 08:55 51.16158 1.39411 30180 ft 457 kts 94°
2026-04-21 08:56 51.15808 1.44434 30639 ft 454 kts 90°
2026-04-21 08:56 51.15569 1.49426 31053 ft 454 kts 89°
2026-04-21 08:56 51.15348 1.54419 31504 ft 454 kts 89°
2026-04-21 08:56 51.15125 1.59369 31973 ft 452 kts 89°
2026-04-21 08:57 51.14892 1.64341 32387 ft 452 kts 89°
2026-04-21 08:57 51.14651 1.69325 32717 ft 453 kts 90°
2026-04-21 08:57 51.14404 1.74329 33026 ft 454 kts 90°
2026-04-21 08:57 51.14153 1.79343 33237 ft 455 kts 90°
2026-04-21 08:58 51.13900 1.84292 33246 ft 456 kts 90°
2026-04-21 08:58 51.13380 1.94351 33240 ft 457 kts 90°
2026-04-21 08:59 51.12854 2.04413 33243 ft 455 kts 90°
2026-04-21 08:59 51.12324 2.14390 33251 ft 454 kts 90°
2026-04-21 09:00 51.11784 2.24377 33256 ft 453 kts 90°
2026-04-21 09:00 51.11238 2.34284 33254 ft 452 kts 91°
2026-04-21 09:01 51.10683 2.44217 33256 ft 450 kts 91°
2026-04-21 09:01 51.10119 2.54093 33232 ft 450 kts 91°
2026-04-21 09:02 51.09408 2.63933 33246 ft 452 kts 96°
2026-04-21 09:02 51.07976 2.73681 33235 ft 454 kts 103°
2026-04-21 09:03 51.05352 2.88004 33231 ft 455 kts 103°
2026-04-21 09:03 51.03585 2.97631 33239 ft 456 kts 103°
2026-04-21 09:04 51.01819 3.07237 33232 ft 454 kts 103°
2026-04-21 09:04 51.00049 3.16834 33237 ft 455 kts 103°
2026-04-21 09:05 50.98260 3.26489 33240 ft 454 kts 103°
2026-04-21 09:05 50.96475 3.36059 33240 ft 454 kts 103°
2026-04-21 09:06 50.94675 3.45671 33238 ft 453 kts 103°
2026-04-21 09:06 50.92875 3.55229 33237 ft 452 kts 104°
2026-04-21 09:07 50.91076 3.64719 33238 ft 451 kts 104°
2026-04-21 09:07 50.89291 3.74015 33232 ft 451 kts 104°
2026-04-21 09:08 50.87452 3.83521 33231 ft 449 kts 104°
2026-04-21 09:08 50.85611 3.92989 33229 ft 450 kts 104°
2026-04-21 09:09 50.83780 4.02375 33231 ft 449 kts 104°
2026-04-21 09:09 50.81926 4.11834 33231 ft 449 kts 104°
2026-04-21 09:10 50.80064 4.21277 33228 ft 450 kts 104°
2026-04-21 09:10 50.78217 4.30605 33139 ft 447 kts 104°
2026-04-21 09:11 50.77280 4.35318 32596 ft 452 kts 104°
2026-04-21 09:11 50.76333 4.40073 31813 ft 458 kts 104°
2026-04-21 09:11 50.75373 4.44874 31250 ft 457 kts 104°
2026-04-21 09:11 50.74415 4.49654 30724 ft 454 kts 104°
2026-04-21 09:12 50.73469 4.54361 30139 ft 450 kts 104°
2026-04-21 09:12 50.72530 4.59027 29532 ft 448 kts 104°
2026-04-21 09:12 50.71596 4.63741 28833 ft 448 kts 104°
2026-04-21 09:12 50.70694 4.68425 28204 ft 445 kts 104°
2026-04-21 09:13 50.69809 4.73019 27739 ft 438 kts 104°
2026-04-21 09:13 50.68930 4.77564 27284 ft 432 kts 104°
2026-04-21 09:13 50.68053 4.82074 26804 ft 426 kts 105°
2026-04-21 09:13 50.67184 4.86524 26302 ft 421 kts 105°
2026-04-21 09:14 50.66331 4.90885 25820 ft 415 kts 105°
2026-04-21 09:14 50.65471 4.95172 25341 ft 410 kts 106°
2026-04-21 09:14 50.64605 4.99398 24782 ft 407 kts 106°
2026-04-21 09:14 50.63737 5.03617 24179 ft 404 kts 106°
2026-04-21 09:15 50.62873 5.07797 23660 ft 399 kts 106°
2026-04-21 09:15 50.62017 5.11936 23172 ft 394 kts 106°
2026-04-21 09:15 50.61178 5.15985 22698 ft 389 kts 106°
2026-04-21 09:15 50.60353 5.19968 22243 ft 384 kts 105°
2026-04-21 09:16 50.59522 5.23973 21788 ft 379 kts 105°
2026-04-21 09:16 50.58713 5.27867 21340 ft 374 kts 105°
2026-04-21 09:16 50.57919 5.31682 20902 ft 370 kts 105°
2026-04-21 09:16 50.57124 5.35496 20459 ft 365 kts 105°
2026-04-21 09:17 50.56336 5.39266 20024 ft 361 kts 105°
2026-04-21 09:17 50.55552 5.43014 19589 ft 358 kts 105°
2026-04-21 09:17 50.54779 5.46702 19154 ft 354 kts 105°
2026-04-21 09:17 50.54007 5.50373 18722 ft 351 kts 105°
2026-04-21 09:18 50.53246 5.53992 18278 ft 349 kts 105°
2026-04-21 09:18 50.52488 5.57583 17845 ft 346 kts 105°
2026-04-21 09:18 50.51947 5.61187 17409 ft 340 kts 92°
2026-04-21 09:18 50.52056 5.64846 16982 ft 334 kts 77°
2026-04-21 09:19 50.52661 5.68204 16570 ft 330 kts 71°
2026-04-21 09:19 50.53389 5.71609 16155 ft 327 kts 70°
2026-04-21 09:19 50.54126 5.75014 15716 ft 325 kts 70°
2026-04-21 09:19 50.54821 5.78256 15304 ft 323 kts 70°
2026-04-21 09:20 50.55525 5.81565 14879 ft 321 kts 71°
2026-04-21 09:20 50.56206 5.84787 14478 ft 318 kts 71°
2026-04-21 09:20 50.56914 5.88155 14075 ft 316 kts 71°
2026-04-21 09:20 50.57600 5.91423 13619 ft 315 kts 71°
2026-04-21 09:21 50.58287 5.94708 13184 ft 313 kts 71°
2026-04-21 09:21 50.58963 5.97949 12801 ft 309 kts 71°
2026-04-21 09:21 50.59627 6.01138 12398 ft 307 kts 71°
2026-04-21 09:21 50.60294 6.04348 11989 ft 304 kts 71°
2026-04-21 09:22 50.60945 6.07489 11593 ft 302 kts 72°
2026-04-21 09:22 50.61595 6.10632 11197 ft 300 kts 72°
2026-04-21 09:22 50.62233 6.13720 10811 ft 297 kts 72°
2026-04-21 09:22 50.62875 6.16830 10441 ft 293 kts 72°
2026-04-21 09:23 50.63414 6.19889 10325 ft 280 kts 79°
2026-04-21 09:23 50.63564 6.22829 10227 ft 268 kts 90°
2026-04-21 09:23 50.63457 6.25727 10022 ft 261 kts 93°
2026-04-21 09:23 50.63311 6.28560 9670 ft 259 kts 93°
2026-04-21 09:24 50.63171 6.31367 9334 ft 257 kts 90°
2026-04-21 09:24 50.63321 6.34135 9004 ft 253 kts 77°
2026-04-21 09:24 50.63882 6.36730 8689 ft 251 kts 67°
2026-04-21 09:24 50.64587 6.39220 8381 ft 248 kts 66°
2026-04-21 09:25 50.65301 6.41688 8075 ft 246 kts 66°
2026-04-21 09:25 50.66008 6.44135 7770 ft 243 kts 66°
2026-04-21 09:25 50.66704 6.46554 7462 ft 241 kts 66°
2026-04-21 09:25 50.67387 6.48936 7165 ft 239 kts 66°
2026-04-21 09:26 50.68058 6.51281 6869 ft 237 kts 66°
2026-04-21 09:26 50.68735 6.53651 6573 ft 235 kts 66°
2026-04-21 09:26 50.69401 6.55992 6279 ft 233 kts 66°
2026-04-21 09:26 50.70063 6.58319 5980 ft 232 kts 66°
2026-04-21 09:27 50.70728 6.60658 5675 ft 231 kts 66°
2026-04-21 09:27 50.71376 6.62941 5381 ft 230 kts 66°
2026-04-21 09:27 50.71977 6.65057 5110 ft 229 kts 66°
2026-04-21 09:27 50.72262 6.66064 4982 ft 229 kts 66°
2026-04-21 09:28 50.72364 6.66424 4936 ft 229 kts 66°
2026-04-21 09:28 50.73016 6.68725 4635 ft 228 kts 66°
2026-04-21 09:28 50.73646 6.70950 4346 ft 228 kts 66°
2026-04-21 09:28 50.74308 6.73296 4035 ft 228 kts 66°
2026-04-21 09:29 50.74951 6.75566 3740 ft 227 kts 66°
2026-04-21 09:29 50.75617 6.77830 3485 ft 225 kts 65°
2026-04-21 09:29 50.76245 6.79938 3445 ft 212 kts 65°
2026-04-21 09:29 50.76850 6.81960 3435 ft 199 kts 65°
2026-04-21 09:30 50.77427 6.83890 3396 ft 192 kts 64°
2026-04-21 09:30 50.77997 6.85795 3361 ft 191 kts 64°
2026-04-21 09:30 50.78563 6.87687 3338 ft 191 kts 64°
2026-04-21 09:30 50.79130 6.89576 3270 ft 191 kts 64°
2026-04-21 09:31 50.79700 6.91472 3099 ft 191 kts 65°
2026-04-21 09:31 50.80272 6.93375 2845 ft 189 kts 65°
2026-04-21 09:31 50.80818 6.95189 2683 ft 178 kts 64°
2026-04-21 09:31 50.81348 6.96947 2411 ft 174 kts 65°
2026-04-21 09:32 50.81858 6.98639 2147 ft 165 kts 64°
2026-04-21 09:32 50.82325 7.00189 1942 ft 148 kts 64°
2026-04-21 09:32 50.82743 7.01577 1716 ft 134 kts 63°
2026-04-21 09:32 50.83144 7.02902 1541 ft 132 kts 64°
2026-04-21 09:33 50.83525 7.04168 1359 ft 124 kts 63°
2026-04-21 09:33 50.83899 7.05407 1228 ft 125 kts 62°
2026-04-21 09:33 50.84279 7.06630 1066 ft 125 kts 63°
2026-04-21 09:33 50.84645 7.07869 876 ft 125 kts 63°
2026-04-21 09:34 50.85027 7.09129 728 ft 126 kts 64°
2026-04-21 09:34 50.85412 7.10370 542 ft 126 kts 64°
2026-04-21 09:34 50.85784 7.11620 379 ft 127 kts 64°
2026-04-21 09:34 50.86166 7.12888 247 ft 124 kts 63°
2026-04-21 09:35 50.86436 7.13779 255 ft 45 kts 63°
2026-04-21 09:35 50.86539 7.14106 259 ft 21 kts 63°
2026-04-21 09:35 50.86585 7.14263 261 ft 9 kts 65°
2026-04-21 09:35 50.86634 7.14277 261 ft 9 kts 328°
2026-04-21 09:36 50.86694 7.14196 258 ft 13 kts 317°
2026-04-21 09:36 50.86749 7.14135 256 ft 10 kts 353°
2026-04-21 09:36 50.86820 7.14073 253 ft 13 kts 317°
2026-04-21 09:36 50.86890 7.13972 251 ft 8 kts 316°
2026-04-21 09:37 50.86912 7.13927 250 ft 6 kts 280°
2026-04-21 09:37 50.86883 7.13865 249 ft 7 kts 224°
2026-04-21 09:37 50.86857 7.13821 249 ft 3 kts 227°
2026-04-21 09:37 50.86851 7.13810 249 ft 0 kts 227°